Wind_Speed
41 41 42 43 44 45 44 40 37 35 35 35 35 35 34 33 32 32 31 28 27 26 25 25 25 26 27 27 26 26 26 26 26 26 24 22 20 18 17 15 14 13 12 11 10 10 9 9 9
40 41 42 43 45 46 43 41 39 39 39 38 38 38 37 36 35 34 33 31 29 28 27 26 26 27 28 28 28 28 27 27 27 28 27 26 24 22 20 18 17 16 14 13 12 12 11 10 10
40 41 42 43 45 44 42 41 42 42 42 42 42 41 41 39 38 37 35 34 32 31 29 29 28 28 29 30 30 29 29 29 29 29 29 28 27 25 23 21 20 18 17 15 14 14 13 12 11
39 40 41 42 42 41 42 42 43 44 44 45 45 44 44 42 41 40 38 37 36 34 32 31 30 30 30 31 32 31 31 31 31 31 31 30 29 28 27 25 23 21 19 18 16 15 15 14 13
39 40 40 40 39 40 41 43 43 44 46 46 47 47 46 45 44 43 42 40 38 37 35 34 33 32 32 32 33 33 33 33 33 33 33 32 31 31 30 28 26 24 22 20 19 18 17 16 15
39 40 40 39 38 39 40 42 44 44 45 47 48 48 48 48 47 46 44 43 42 40 39 37 36 35 34 33 33 34 34 34 35 34 34 34 34 33 32 31 29 27 25 23 21 20 19 18 17
40 40 40 39 39 40 40 42 43 44 45 46 48 49 49 49 49 48 47 46 44 43 41 40 38 38 37 36 35 35 35 36 36 36 36 36 36 36 35 34 32 30 28 26 24 22 21 20 19
41 41 40 40 40 40 41 42 43 43 44 46 48 49 49 50 51 50 50 48 47 46 44 43 42 40 39 38 38 37 36 37 37 38 38 38 38 38 37 36 35 33 31 29 27 25 23 22 21
43 42 41 41 41 41 42 42 43 44 44 45 47 49 49 50 52 52 52 51 50 49 47 46 44 43 42 41 40 40 38 39 39 39 40 40 40 39 39 38 37 35 33 31 29 28 26 24 23
43 43 42 42 42 42 43 43 43 44 44 45 47 49 50 50 51 52 53 52 52 51 49 48 47 45 45 44 43 42 41 40 40 41 41 41 41 41 41 40 39 37 36 34 32 30 28 27 26
43 43 43 43 43 43 43 43 44 45 44 46 48 49 50 50 51 52 53 53 53 52 51 50 49 48 47 46 45 43 43 42 42 42 41 42 42 42 42 41 41 39 38 36 34 32 31 29 28
44 43 43 42 43 43 44 44 45 45 46 48 49 50 51 52 52 53 54 55 55 54 54 53 52 51 50 49 48 46 46 45 43 42 43 42 43 43 43 43 42 41 40 39 37 35 34 32 31
42 41 42 42 43 44 44 45 46 45 47 49 50 52 52 53 54 55 55 56 56 56 56 55 55 54 53 52 50 49 47 46 44 43 43 43 44 45 45 45 44 43 42 41 39 38 36 35 33
39 39 39 40 42 43 44 44 45 45 48 49 50 51 53 54 55 56 57 57 57 57 57 56 57 57 56 54 52 51 49 48 46 44 44 43 44 45 46 46 46 45 43 42 42 40 39 37 36
35 36 36 38 39 40 42 42 44 45 47 48 50 51 53 54 55 56 57 58 58 58 58 58 58 58 58 57 55 53 51 50 49 47 46 45 45 46 46 46 46 45 45 45 44 42 41 40 38
32 33 34 35 37 38 39 39 42 45 46 46 48 49 50 51 52 54 55 57 58 59 58 59 60 59 59 59 57 56 55 54 52 50 48 47 46 46 47 47 47 47 47 47 46 45 43 42 41
29 30 31 33 34 35 36 35 37 39 40 41 43 44 45 47 48 50 52 53 55 57 57 58 59 59 59 60 59 59 57 55 55 52 50 49 48 48 48 48 49 49 48 48 48 46 46 45 44
27 27 28 29 30 30 31 30 30 32 34 35 36 37 39 42 43 46 48 51 52 54 55 56 58 58 59 59 59 59 58 56 55 53 52 51 51 50 49 50 50 50 51 50 49 49 49 48 47
23 23 24 24 25 26 25 25 25 26 27 27 29 31 33 36 37 40 42 45 48 50 52 54 55 56 58 59 59 59 57 57 56 54 53 52 52 52 52 52 52 52 52 51 51 51 51 50 49
19 19 19 20 20 20 21 21 21 21 22 22 23 24 26 28 31 34 36 38 41 44 47 50 52 53 55 57 57 57 57 56 56 55 55 54 53 53 54 53 53 54 54 54 52 53 54 53 53
14 15 15 15 14 15 15 15 16 17 17 18 19 19 20 21 23 26 29 31 33 36 40 44 46 48 50 53 55 55 54 53 52 52 52 53 54 53 52 53 53 53 53 54 54 54 54 53 52
9 10 10 10 10 11 12 12 12 13 14 15 16 16 16 17 18 21 23 26 28 29 32 34 38 42 45 48 51 53 53 51 49 49 49 50 51 52 53 51 51 53 52 52 53 54 53 52 51
6 6 7 8 8 9 9 9 9 10 10 10 11 12 12 12 13 15 18 21 23 25 28 29 32 35 38 41 44 47 48 49 49 48 47 48 50 51 53 53 51 51 50 50 50 52 53 53 52
4 4 5 5 5 6 6 6 6 6 6 7 9 9 9 9 10 10 11 15 18 21 24 26 29 31 33 34 38 42 44 45 47 47 47 47 49 50 51 51 51 51 50 50 50 50 53 54 54
2 2 2 2 3 2 2 3 3 5 6 6 6 6 5 5 5 5 6 8 11 15 18 21 24 27 28 30 33 36 38 39 41 43 44 46 47 48 49 50 51 51 50 50 50 51 50 52 53
1 1 0 0 0 1 2 2 3 5 5 5 5 6 5 3 2 2 2 3 6 9 12 15 18 21 23 26 28 30 32 35 38 40 41 43 44 46 47 50 50 50 50 50 51 51 51 51 52
1 1 1 1 2 3 3 3 4 4 5 5 5 5 6 5 4 3 2 1 2 5 7 9 11 14 18 20 23 25 27 30 33 37 38 39 41 42 45 47 48 48 50 51 51 51 51 51 52
3 3 3 3 4 4 5 5 5 4 5 5 5 5 5 5 4 4 3 2 2 2 4 5 7 8 11 15 18 21 23 25 28 31 33 35 36 37 39 42 44 45 47 49 50 50 50 50 50
5 4 5 5 5 5 6 5 6 5 6 6 6 6 7 6 5 4 3 2 1 2 2 3 5 7 9 12 15 19 21 23 26 28 31 33 34 34 37 39 41 42 44 46 48 49 50 51 50
5 5 5 5 5 5 6 6 6 6 6 6 7 7 8 7 6 5 4 3 1 0 1 3 4 6 8 11 14 17 19 22 25 27 29 30 32 34 36 38 40 42 43 44 45 47 49 49 50
Wind_Direction
256 256 256 255 255 255 256 257 258 255 253 251 250 249 249 250 251 253 255 255 255 255 255 254 253 252 252 251 251 250 249 248 246 244 244 244 243 244 245 246 250 255 258 263 268 272 275 278 282
257 256 256 256 256 256 258 258 257 255 253 251 251 250 250 249 250 251 254 254 255 255 255 254 254 253 252 251 251 250 249 248 247 246 244 244 244 244 245 246 248 252 254 257 262 267 269 272 276
256 257 257 256 258 259 259 257 256 254 253 251 250 250 250 250 250 250 252 253 254 255 255 254 253 253 252 251 250 249 249 248 247 247 246 245 245 244 245 245 247 249 251 254 257 263 264 267 270
256 256 257 258 259 259 259 258 256 254 253 252 251 251 251 251 251 251 251 253 254 255 255 255 254 253 252 251 250 248 248 248 247 247 246 245 245 245 245 245 246 247 249 251 254 258 261 262 264
255 256 257 259 260 259 259 258 256 255 254 253 252 252 251 251 251 252 252 252 253 254 254 254 253 252 251 251 250 248 247 247 246 246 246 245 245 245 245 245 245 246 248 250 251 255 258 260 261
256 256 257 258 259 259 258 258 257 256 256 255 254 253 253 252 252 252 252 252 252 252 252 252 252 251 250 249 249 249 247 247 247 246 245 245 245 245 244 245 245 245 247 249 250 252 255 257 259
257 257 258 258 258 258 258 259 259 258 257 256 255 254 253 252 252 251 251 252 252 251 251 250 250 250 249 248 248 248 247 247 247 246 245 245 245 244 245 244 244 245 245 247 248 250 252 255 257
257 258 258 258 258 258 258 259 260 259 259 258 257 256 254 253 252 251 250 250 250 250 250 249 248 248 248 248 247 247 247 246 246 246 245 245 244 244 245 245 245 245 245 246 247 248 250 253 255
257 258 258 258 258 259 259 260 260 260 260 259 259 258 256 254 253 252 250 249 248 248 248 248 247 246 246 246 247 247 246 246 245 245 245 244 244 244 244 244 245 245 245 246 247 247 249 251 253
258 258 259 259 259 259 260 260 261 260 260 260 259 258 257 256 254 253 251 249 248 247 247 246 245 245 245 245 245 245 246 245 245 244 244 244 244 243 243 243 244 244 245 246 247 248 248 250 252
258 259 259 259 260 260 260 261 262 262 261 260 259 258 258 257 255 254 252 250 248 246 245 244 243 243 244 244 244 244 244 245 244 243 243 243 243 242 243 243 243 244 245 245 246 247 248 249 250
258 259 259 260 261 261 262 262 262 263 262 260 260 259 259 258 257 255 253 251 249 246 244 242 241 241 242 243 243 244 243 242 243 243 243 242 241 241 242 242 243 243 244 245 245 246 248 249 250
258 259 260 261 262 263 264 264 264 264 263 262 261 260 259 258 257 256 254 251 248 246 243 241 240 240 240 241 241 241 241 241 241 242 242 241 241 242 242 242 243 243 244 245 246 246 247 248 250
258 259 260 262 263 264 265 265 266 265 264 263 262 261 260 258 257 256 254 251 249 246 244 242 241 240 239 240 240 239 239 239 239 240 240 241 241 241 242 243 243 243 244 245 246 246 247 248 249
257 260 261 262 264 264 265 266 267 265 265 265 264 263 261 259 257 255 254 252 249 247 244 242 240 239 239 238 238 237 237 237 237 237 238 240 241 241 241 242 243 244 244 245 245 247 248 248 249
258 260 261 262 264 266 267 268 268 267 267 266 265 263 261 259 257 255 253 252 250 247 245 243 240 239 238 237 237 236 237 236 235 236 237 239 240 241 241 241 241 243 244 245 246 247 248 249 250
257 259 261 263 265 267 269 270 270 270 268 266 265 263 260 258 256 255 253 251 249 248 245 243 241 240 238 237 236 236 236 236 234 235 236 237 239 240 241 241 242 243 244 245 246 247 248 248 250
258 260 262 264 266 268 270 270 271 271 270 268 266 263 261 259 256 255 253 251 249 248 245 243 242 240 239 237 236 236 236 235 235 235 236 236 238 239 241 241 242 243 243 245 246 247 248 249 250
258 260 263 265 267 268 269 269 271 273 271 269 267 265 263 260 257 255 253 251 249 247 245 243 243 241 239 237 236 236 236 236 235 236 236 236 237 238 240 242 242 243 243 244 246 247 248 250 251
256 258 261 264 267 268 269 271 274 276 273 273 273 271 268 262 258 255 253 251 250 248 246 244 243 242 239 237 236 236 235 235 235 236 236 236 237 238 239 241 242 243 243 244 245 247 248 250 251
250 253 255 258 262 269 271 275 278 279 279 280 279 277 276 269 260 254 250 248 248 248 246 244 242 240 238 236 235 236 235 235 235 236 236 236 236 237 239 241 242 243 245 246 246 247 249 250 252
242 248 250 251 258 269 274 282 286 285 284 285 285 284 283 277 268 263 254 248 245 244 242 242 241 239 238 238 237 236 236 235 235 235 236 236 236 237 238 240 241 244 246 247 248 248 249 250 252
236 243 248 255 268 276 281 285 288 293 292 293 295 294 291 289 284 273 259 249 245 243 241 240 239 237 237 237 237 236 234 234 235 235 234 235 235 236 239 240 242 245 248 248 248 248 249 252 253
221 245 259 266 277 288 290 292 296 304 304 312 313 308 298 294 292 285 266 250 246 244 242 242 239 238 236 235 235 234 233 234 235 235 236 237 237 238 239 240 243 245 247 248 249 250 252 253 254
212 251 275 281 292 311 309 316 325 338 333 333 329 329 321 302 302 301 280 255 243 242 242 241 236 236 236 236 234 233 233 233 234 235 237 239 240 240 239 239 242 244 245 246 247 248 251 252 253
199 235 299 310 27 12 346 349 348 353 352 350 355 360 5 353 351 351 336 270 243 236 236 235 233 232 234 235 234 233 235 235 234 234 236 238 240 241 241 242 243 244 245 245 247 249 251 253 253
132 102 81 74 61 43 40 33 16 11 13 18 18 16 18 20 14 16 22 31 227 231 231 226 229 232 235 236 235 234 234 237 236 236 237 239 240 242 244 245 243 244 246 247 249 251 252 253 253
101 93 81 72 60 57 58 50 44 33 28 27 20 15 17 18 17 19 32 68 116 178 197 206 217 232 238 237 238 237 237 238 238 239 239 241 242 244 247 247 246 246 248 248 250 251 252 252 253
93 84 79 77 67 66 65 55 44 34 32 27 24 22 22 31 33 31 39 61 123 146 171 208 234 244 246 241 241 241 241 241 242 244 244 244 245 246 247 250 250 250 251 252 252 252 252 252 254
84 82 83 78 76 69 62 53 38 30 24 17 16 19 22 23 23 24 17 11 357 217 238 244 251 250 251 247 247 244 243 245 246 248 249 247 248 250 252 253 253 252 254 254 254 254 254 254 255
Height
5793 5795 5797 5800 5802 5803 5806 5811 5815 5818 5819 5821 5823 5825 5827 5830 5833 5837 5837 5838 5840 5841 5843 5844 5846 5847 5849 5851 5853 5855 5857 5859 5861 5863 5864 5866 5867 5868 5869 5871 5872 5873 5874 5875 5876 5877 5878 5878 5879
5785 5787 5790 5792 5793 5796 5801 5804 5807 5809 5811 5814 5816 5818 5821 5823 5826 5829 5830 5832 5835 5837 5838 5840 5842 5843 5844 5846 5848 5850 5852 5854 5856 5858 5860 5862 5864 5865 5867 5868 5869 5871 5872 5873 5874 5875 5876 5877 5877
5777 5779 5782 5784 5786 5790 5793 5796 5798 5800 5802 5805 5808 5810 5813 5816 5819 5822 5824 5826 5829 5831 5833 5835 5837 5838 5840 5841 5843 5845 5847 5849 5851 5854 5856 5858 5860 5862 5863 5865 5866 5868 5869 5871 5872 5873 5874 5875 5875
5770 5772 5774 5777 5780 5783 5784 5786 5789 5791 5793 5796 5799 5802 5805 5809 5812 5815 5817 5820 5823 5825 5827 5829 5831 5833 5835 5836 5838 5840 5842 5844 5846 5849 5851 5853 5855 5857 5859 5861 5863 5864 5866 5867 5869 5870 5871 5872 5873
5762 5764 5767 5770 5772 5774 5775 5777 5779 5782 5784 5787 5790 5793 5797 5800 5803 5807 5810 5813 5816 5818 5821 5823 5825 5827 5829 5831 5832 5834 5836 5839 5841 5843 5846 5848 5850 5852 5854 5857 5859 5860 5862 5864 5865 5867 5868 5869 5870
5754 5756 5759 5762 5765 5766 5767 5768 5770 5773 5776 5778 5781 5785 5788 5791 5795 5798 5802 5805 5808 5811 5813 5815 5818 5820 5822 5824 5826 5828 5830 5833 5835 5837 5840 5842 5845 5847 5849 5852 5854 5856 5858 5860 5862 5863 5864 5866 5867
5746 5748 5751 5754 5756 5758 5759 5760 5762 5764 5767 5769 5772 5775 5779 5782 5785 5789 5792 5796 5799 5802 5805 5807 5810 5812 5815 5817 5820 5822 5824 5826 5829 5831 5834 5836 5839 5841 5844 5846 5849 5851 5853 5855 5857 5859 5860 5862 5863
5737 5740 5743 5746 5747 5749 5750 5751 5753 5756 5758 5760 5762 5765 5769 5772 5774 5778 5782 5786 5789 5792 5795 5798 5801 5804 5807 5810 5812 5815 5817 5820 5822 5824 5827 5830 5832 5835 5838 5840 5843 5846 5848 5850 5853 5854 5856 5858 5859
5728 5732 5735 5737 5738 5740 5741 5743 5745 5747 5749 5751 5752 5755 5758 5760 5763 5767 5771 5775 5779 5782 5786 5789 5792 5796 5799 5801 5804 5807 5810 5812 5815 5817 5820 5823 5826 5829 5831 5834 5837 5840 5842 5845 5847 5850 5851 5853 5854
5720 5723 5726 5727 5729 5730 5732 5733 5735 5738 5740 5741 5742 5744 5746 5749 5752 5756 5759 5764 5768 5772 5776 5779 5783 5786 5790 5793 5796 5799 5802 5804 5807 5810 5813 5816 5819 5822 5824 5827 5830 5833 5836 5839 5842 5844 5846 5848 5849
5711 5714 5716 5717 5718 5720 5723 5724 5726 5728 5731 5731 5732 5733 5735 5738 5741 5744 5748 5752 5756 5761 5765 5769 5773 5776 5780 5784 5787 5791 5794 5796 5799 5802 5805 5808 5811 5814 5817 5821 5824 5827 5830 5833 5835 5838 5840 5842 5844
5702 5704 5706 5707 5709 5711 5713 5715 5716 5718 5720 5719 5721 5723 5725 5727 5730 5733 5736 5740 5744 5749 5753 5758 5762 5766 5770 5774 5778 5781 5785 5788 5791 5794 5797 5800 5803 5807 5810 5813 5816 5819 5823 5826 5829 5831 5833 5836 5838
5693 5695 5697 5698 5699 5701 5703 5705 5706 5709 5708 5708 5710 5712 5714 5716 5718 5720 5723 5727 5731 5736 5741 5746 5750 5755 5760 5764 5768 5772 5776 5779 5783 5786 5789 5792 5796 5799 5802 5806 5809 5812 5815 5818 5821 5824 5827 5829 5831
5684 5686 5688 5689 5690 5692 5694 5695 5696 5699 5696 5697 5698 5700 5701 5703 5706 5708 5710 5714 5718 5723 5729 5734 5739 5743 5748 5753 5757 5762 5766 5769 5773 5777 5780 5784 5787 5791 5794 5798 5801 5805 5808 5811 5814 5817 5819 5822 5824
5676 5678 5680 5680 5681 5683 5685 5688 5686 5685 5685 5686 5686 5687 5689 5690 5692 5695 5697 5701 5705 5710 5715 5720 5726 5731 5736 5741 5747 5751 5755 5759 5764 5768 5771 5775 5779 5782 5786 5789 5793 5796 5800 5803 5805 5809 5812 5815 5817
5669 5671 5672 5673 5673 5674 5677 5679 5676 5673 5674 5675 5675 5675 5676 5678 5679 5682 5684 5688 5692 5697 5702 5707 5712 5718 5724 5729 5735 5740 5744 5749 5754 5758 5762 5766 5770 5773 5777 5781 5785 5788 5791 5794 5797 5801 5804 5807 5809
5663 5664 5665 5666 5666 5666 5668 5669 5667 5663 5663 5664 5663 5663 5663 5665 5667 5669 5672 5675 5679 5683 5688 5694 5699 5705 5711 5717 5723 5728 5733 5738 5743 5748 5752 5757 5760 5764 5768 5772 5776 5779 5782 5785 5789 5792 5795 5798 5800
5657 5658 5659 5659 5659 5660 5660 5660 5658 5656 5655 5654 5654 5653 5653 5654 5656 5657 5659 5663 5667 5671 5675 5680 5686 5692 5699 5705 5710 5717 5722 5728 5733 5738 5742 5747 5751 5755 5759 5763 5766 5769 5773 5776 5780 5783 5786 5789 5791
5652 5653 5653 5653 5653 5654 5653 5653 5652 5649 5648 5647 5645 5645 5644 5645 5645 5646 5648 5651 5655 5659 5663 5668 5673 5679 5685 5692 5699 5705 5711 5717 5722 5728 5732 5736 5741 5745 5749 5753 5757 5760 5763 5767 5771 5773 5776 5779 5781
5647 5648 5648 5649 5648 5649 5648 5648 5646 5644 5642 5641 5639 5638 5637 5637 5637 5637 5639 5641 5644 5648 5652 5657 5662 5667 5673 5680 5687 5693 5700 5705 5712 5716 5721 5726 5731 5736 5740 5743 5747 5750 5754 5757 5760 5763 5766 5769 5772
5643 5644 5645 5645 5645 5645 5645 5644 5642 5640 5638 5636 5634 5633 5632 5631 5630 5630 5631 5632 5635 5638 5642 5646 5651 5657 5662 5669 5675 5681 5688 5694 5701 5706 5711 5716 5721 5725 5729 5733 5737 5740 5743 5747 5751 5753 5756 5759 5762
5641 5642 5642 5642 5643 5642 5642 5641 5639 5637 5635 5633 5631 5629 5627 5626 5625 5624 5624 5626 5628 5631 5634 5638 5642 5647 5653 5658 5664 5671 5678 5685 5691 5696 5701 5705 5710 5715 5719 5723 5727 5730 5733 5737 5740 5743 5746 5748 5751
5640 5641 5641 5641 5641 5641 5640 5639 5638 5634 5633 5631 5628 5626 5624 5623 5621 5620 5619 5620 5622 5625 5627 5631 5635 5639 5645 5650 5656 5662 5669 5675 5681 5686 5691 5696 5700 5705 5709 5713 5717 5720 5723 5727 5730 5732 5735 5738 5741
5640 5640 5640 5640 5640 5640 5638 5637 5636 5633 5631 5629 5627 5625 5622 5620 5618 5617 5616 5616 5618 5620 5622 5625 5629 5633 5638 5643 5648 5654 5661 5666 5672 5677 5682 5686 5691 5695 5699 5703 5707 5710 5713 5717 5720 5722 5725 5727 5730
5640 5641 5641 5640 5639 5639 5637 5636 5636 5633 5631 5629 5626 5624 5621 5620 5618 5616 5615 5614 5615 5617 5619 5622 5625 5628 5633 5637 5642 5648 5653 5658 5663 5668 5673 5678 5682 5686 5690 5693 5696 5700 5703 5706 5709 5711 5714 5716 5719
5640 5641 5642 5641 5640 5639 5637 5636 5636 5633 5631 5629 5626 5624 5622 5620 5618 5617 5615 5614 5615 5616 5617 5619 5622 5625 5629 5633 5637 5642 5647 5651 5656 5660 5664 5669 5673 5677 5680 5683 5686 5689 5692 5695 5698 5700 5703 5705 5707
5641 5641 5641 5641 5640 5639 5638 5637 5636 5634 5632 5630 5628 5626 5624 5622 5620 5618 5617 5615 5615 5616 5617 5618 5620 5623 5626 5630 5633 5637 5641 5645 5649 5653 5657 5660 5664 5667 5670 5673 5676 5679 5681 5684 5687 5689 5692 5694 5696
5643 5642 5642 5642 5641 5640 5640 5638 5637 5635 5633 5631 5629 5627 5625 5623 5622 5620 5618 5617 5617 5616 5617 5619 5621 5623 5625 5627 5630 5633 5637 5640 5643 5647 5650 5653 5655 5658 5660 5663 5666 5668 5671 5673 5676 5678 5680 5682 5684
5644 5644 5643 5643 5642 5642 5641 5642 5639 5637 5635 5633 5631 5629 5627 5625 5624 5622 5620 5619 5619 5618 5618 5619 5621 5622 5623 5625 5627 5630 5632 5635 5638 5640 5643 5646 5648 5650 5652 5654 5656 5658 5660 5662 5664 5666 5668 5670 5672
5646 5645 5645 5645 5644 5643 5642 5645 5640 5638 5636 5635 5633 5631 5629 5627 5625 5623 5622 5621 5620 5620 5620 5621 5621 5622 5622 5623 5624 5626 5628 5630 5633 5635 5637 5639 5640 5642 5643 5645 5646 5648 5649 5651 5652 5654 5656 5657 5659